TimeEDT,TemperatureF,Dew PointF,Humidity,Sea Level PressureIn,VisibilityMPH,Wind Direction,Wind SpeedMPH,Gust SpeedMPH,PrecipitationIn,Events,Conditions,WindDirDegrees,DateUTC
12:35 AM,33.8,32.0,93,30.06,8.0,Calm,Calm,-,N/A,,Clear,0,2012-10-12 04:35:00
12:55 AM,33.8,30.2,87,30.06,10.0,Calm,Calm,-,N/A,,Clear,0,2012-10-12 04:55:00
1:15 AM,33.8,32.0,93,30.06,10.0,South,3.5,-,N/A,,Clear,190,2012-10-12 05:15:00
1:55 AM,33.8,30.2,87,30.05,10.0,South,3.5,-,N/A,,Clear,190,2012-10-12 05:55:00
2:15 AM,33.8,32.0,93,30.04,10.0,South,3.5,-,N/A,,Clear,170,2012-10-12 06:15:00
2:35 AM,33.8,30.2,87,30.03,10.0,South,3.5,-,N/A,,Clear,190,2012-10-12 06:35:00
2:55 AM,33.8,30.2,87,30.02,10.0,South,4.6,-,N/A,,Clear,180,2012-10-12 06:55:00
3:15 AM,33.8,30.2,87,30.01,10.0,South,4.6,-,N/A,,Clear,190,2012-10-12 07:15:00
3:55 AM,33.8,30.2,87,30.00,10.0,Calm,Calm,-,N/A,,Clear,0,2012-10-12 07:55:00
4:15 AM,33.8,30.2,87,30.00,10.0,South,4.6,-,N/A,,Clear,170,2012-10-12 08:15:00
4:35 AM,33.8,32.0,93,29.99,10.0,South,4.6,-,N/A,,Clear,180,2012-10-12 08:35:00
4:55 AM,33.8,32.0,93,29.99,10.0,South,4.6,-,N/A,,Clear,180,2012-10-12 08:55:00
5:15 AM,35.6,32.0,87,29.98,10.0,South,3.5,-,N/A,,Clear,180,2012-10-12 09:15:00
5:35 AM,35.6,33.8,93,29.98,10.0,South,3.5,-,N/A,,Clear,180,2012-10-12 09:35:00
5:55 AM,37.4,33.8,87,29.98,10.0,Calm,Calm,-,N/A,,Clear,0,2012-10-12 09:55:00
6:15 AM,35.6,33.8,93,29.98,10.0,Calm,Calm,-,N/A,,Clear,0,2012-10-12 10:15:00
6:55 AM,37.4,35.6,93,29.99,10.0,Calm,Calm,-,N/A,,Mostly Cloudy,0,2012-10-12 10:55:00
7:15 AM,37.4,35.6,93,30.00,10.0,Calm,Calm,-,N/A,,Mostly Cloudy,0,2012-10-12 11:15:00
7:35 AM,39.2,35.6,87,30.01,10.0,Calm,Calm,-,N/A,,Overcast,0,2012-10-12 11:35:00
7:55 AM,39.2,35.6,87,30.02,10.0,Calm,Calm,-,N/A,,Overcast,0,2012-10-12 11:55:00
8:15 AM,39.2,37.4,93,30.03,10.0,Calm,Calm,-,N/A,,Overcast,0,2012-10-12 12:15:00
8:35 AM,39.2,37.4,93,30.04,6.0,Calm,Calm,-,N/A,,Overcast,0,2012-10-12 12:35:00
9:15 AM,44.6,35.6,71,30.06,10.0,NNW,8.1,-,N/A,,Mostly Cloudy,340,2012-10-12 13:15:00
9:35 AM,44.6,35.6,71,30.06,10.0,WNW,3.5,-,N/A,,Mostly Cloudy,300,2012-10-12 13:35:00
10:15 AM,44.6,35.6,71,30.07,10.0,Calm,Calm,-,N/A,,Overcast,0,2012-10-12 14:15:00
10:35 AM,44.6,35.6,71,30.07,10.0,WNW,4.6,-,N/A,,Overcast,300,2012-10-12 14:35:00
10:55 AM,46.4,35.6,66,30.08,10.0,West,8.1,-,N/A,,Overcast,280,2012-10-12 14:55:00
11:15 AM,46.4,33.8,62,30.08,10.0,West,5.8,-,N/A,,Overcast,280,2012-10-12 15:15:00
11:35 AM,46.4,35.6,66,30.08,10.0,North,12.7,16.1,N/A,,Overcast,10,2012-10-12 15:35:00
11:55 AM,44.6,35.6,71,30.09,10.0,North,9.2,-,N/A,,Overcast,360,2012-10-12 15:55:00
12:15 PM,48.2,35.6,62,30.09,10.0,NNW,9.2,-,N/A,,Mostly Cloudy,340,2012-10-12 16:15:00
12:55 PM,48.2,32.0,54,30.09,10.0,NNW,10.4,21.9,N/A,,Mostly Cloudy,330,2012-10-12 16:55:00
1:15 PM,48.2,28.4,46,30.09,10.0,North,15.0,20.7,N/A,,Mostly Cloudy,350,2012-10-12 17:15:00
1:35 PM,50.0,26.6,40,30.09,10.0,NW,9.2,-,N/A,,Scattered Clouds,320,2012-10-12 17:35:00
1:55 PM,51.8,24.8,35,30.10,10.0,NW,11.5,25.3,N/A,,Scattered Clouds,310,2012-10-12 17:55:00
2:35 PM,50.0,24.8,37,30.11,10.0,North,13.8,28.8,N/A,,Partly Cloudy,350,2012-10-12 18:35:00
2:55 PM,51.8,21.2,30,30.12,10.0,NNW,15.0,25.3,N/A,,Clear,330,2012-10-12 18:55:00
3:15 PM,51.8,21.2,30,30.12,10.0,North,17.3,23.0,N/A,,Scattered Clouds,350,2012-10-12 19:15:00
3:35 PM,51.8,21.2,30,30.13,10.0,North,16.1,27.6,N/A,,Partly Cloudy,360,2012-10-12 19:35:00
3:55 PM,50.0,21.2,32,30.13,10.0,North,10.4,25.3,N/A,,Partly Cloudy,360,2012-10-12 19:55:00
4:15 PM,50.0,21.2,32,30.14,10.0,North,17.3,26.5,N/A,,Mostly Cloudy,360,2012-10-12 20:15:00
4:55 PM,48.2,21.2,34,30.17,10.0,North,19.6,27.6,N/A,,Scattered Clouds,350,2012-10-12 20:55:00
5:35 PM,46.4,24.8,43,30.19,10.0,North,16.1,21.9,N/A,,Scattered Clouds,360,2012-10-12 21:35:00
6:15 PM,44.6,24.8,46,30.21,10.0,North,10.4,-,N/A,,Scattered Clouds,350,2012-10-12 22:15:00
6:55 PM,42.8,23.0,46,30.24,10.0,North,17.3,-,N/A,,Partly Cloudy,350,2012-10-12 22:55:00
7:35 PM,41.0,21.2,45,30.28,10.0,North,11.5,19.6,N/A,,Clear,350,2012-10-12 23:35:00
7:55 PM,41.0,21.2,45,30.29,10.0,North,9.2,-,N/A,,Clear,350,2012-10-12 23:55:00
8:15 PM,39.2,21.2,49,30.30,10.0,North,5.8,-,N/A,,Clear,360,2012-10-13 00:15:00
8:35 PM,39.2,21.2,49,30.31,10.0,North,5.8,-,N/A,,Clear,360,2012-10-13 00:35:00
8:55 PM,39.2,21.2,49,30.31,10.0,NNW,4.6,-,N/A,,Clear,330,2012-10-13 00:55:00
9:35 PM,35.6,23.0,60,30.32,10.0,Calm,Calm,-,N/A,,Clear,0,2012-10-13 01:35:00
10:15 PM,30.2,23.0,75,30.35,10.0,Calm,Calm,-,N/A,,Clear,0,2012-10-13 02:15:00
10:35 PM,33.8,24.8,70,30.35,10.0,Calm,Calm,-,N/A,,Clear,0,2012-10-13 02:35:00
11:15 PM,30.2,24.8,80,30.36,10.0,Calm,Calm,-,N/A,,Clear,0,2012-10-13 03:15:00
11:35 PM,30.2,24.8,80,30.36,10.0,Calm,Calm,-,N/A,,Clear,0,2012-10-13 03:35:00
11:55 PM,28.4,24.8,86,30.36,10.0,Calm,Calm,-,N/A,,Clear,0,2012-10-13 03:55:00